Погода в Твери

Погода в Твери : погода сейчас, прогноз погоды и архив. Всё, что Вы хотите узнать о погоде в Твери!

Хотите узнать прогноз погоды в Твери? Тогда Вам сюда: Погода в Твери

Поиск расширенной информации на нашем сайте:

Другие новости

Новости СМИ2

Главная страница сайта

Новости сайта

02.10.2013

Напоминаем, что на нашем новом сайте вы можете получить высокодетализированные прогнозы погоды по пунктам России, СНГ и мира (включающие важные для авиации метеовеличины, такие как направление и скорость ветра, видимость, явления погоды, количество и форма облачности, нижняя и верхняя граница облачности), а также ознакомиться с разнообразными материалами по авиационной метеорологии и подборкой полезных ссылок на эту тему.

Сайт Метеоцентр.Азия посвящён разработке технологий оптимизации авиаметеорологического обслуживания, включая проектирование и перспективное создание нескольких автоматизированных авиаметеорологических систем:
- система выпуска высокодетальных прогностических карт явлений погоды для нижнего воздушного пространства по России и ближнему зарубежью;
- система верификации прогнозов TAF (выпускаемых синоптиками официальных АМСГ РФ и ближнего зарубежья) и AUTOTAF (выпускаемых сайтом Метеоцентр.Азия) - выявление ошибок, онлайн-сопоставление с фактической погодой METAR, автоматическое внесение коррективов в прогнозы при резком отклонении фактической погоды от прогноза, подсчёт оправдываемости прогнозов по элементам и в целом;
- система обработки, анализа и отображения авиаметеорологической информации для применения провайдерами метеорологической информации.

Рекомендуем: http://udom24.ru/ объявлений продажа домов в красноярском крае.

Погода в Твери - сегодня

Время (UTC), дата Ветер
(°,м/с) 
Видим.   Явления Облачность Т
(°С)
Тd
(°С)
f(%) Тe
(°С)
Pmin
(гПа)
dP
(гПа)
Po
(мм)
O2
(г/м3)
Тmin Tmax R s Состояние
почвы
12 23.02.17 130 (ЮВ) 10 км  слаб. снег  10/10 300 м 
[Frnb|Ns]
-0.9 -2.7 88 -3  986.3  -0.7  726  294           
15 23.02.17 140 (ЮВ) 4000 м  слаб. снег  10/10 330 м 
[Frnb|Ns]
-0.4 -1.8 90 -1  986.5  0.2  727  293         
18 23.02.17 160 (Ю) 10 км  {снег}  8/8 1020 м 
[Sc]
-2.8 -3.5 95 -2  987.2  0.5  727  296    -0.1     
21 23.02.17 тихо ()   10 км  слаб. снег  10/10 870 м 
[Ns]
-2.6 -3.1 96 -3  987.6  0.4  727  296           
00 24.02.17 210 (ЮЗ) 10 км  {снег}  10/10 300 м 
[St]
+0.5 -0.5 93 +1  988.3  0.9  728  293           
03 24.02.17 200 (Ю) н/о    н/о 
-0.1 -1.6 90 -1  988.9  0.5  728  294  -3.2         
06 24.02.17 200 (Ю) 10 км    9/5 600 м средняя 
[Sc|Ac trans]
-1.6 -5.5 75 -1  990.2  1.1  729  296  -3.2    0.0  26  равномерный
сухой снег
100% 
09 24.02.17 120 (ЮВ) 10 км    9/6 800 м средняя 
[Sc|Ac trans]
+0.1 -4.4 72 -1  988.4  -1.7  728  294           
12 24.02.17 120 (ЮВ) 2000 м  снег  10/10 330 м 
[Frnb|Ns]
+0.7 -0 95 -2  984.6  -3.7  725  291           
15 24.02.17 130 (ЮВ) 2000 м  снег  10/10 180 м 
[Frnb|Ns]
+0.4 -0.2 96 982  -2.5  723  291         
18 24.02.17 260 (З) 4000 м  слаб. снег  10/10 120 м 
[Frnb|Ns]
+0.4 -0.1 96 +1  982.3  0.3  723  291    +0.7     
21 24.02.17 310 (СЗ) 10 км  {снег}  10/10 400 м 
[St]
-1.6 -3 90 -3  987.7  5.2  727  295           
00 25.02.17 290 (З) 10 км  {снег}  ясно 
-3.5 -5.6 85 -3  991.8  3.9  730  299           
03 25.02.17 240 (ЮЗ) 10 км    ясно 
-5.8 -8.1 84 -5  993.9  1.9  732  302  -5.8       
06 25.02.17 200 (Ю) 10 км    3/0 средняя 
[Ac trans]
-5.1 -8.2 79 -6  994.6  0.7  732  301  -6.3    0.0  26  равномерный
сухой снег
100% 
09 25.02.17 220 (ЮЗ) 10 км    9/9 660 м 
[Sc]
-3.5 -7.8 72 -5  995.2  0.7  733  300           
12 25.02.17 240 (ЮЗ) 2{10}  10 км  в посл. час снег  9/9 1170 м 
[Sc]
-2.2 -7.6 66 -3  995.9  0.8  733  299           
15 25.02.17 270 (З) 10 км  {снег}  9/8 750 м средняя 
[Sc|Ac trans]
-2.9 -7.2 72 -2  997.4  1.4  734  300      0.2     
18 25.02.17 280 (З) 10 км  {снег}  9/9 1020 м 
[Sc]
-3.4 -7.8 72 -5  999  1.5  736  301    -2  0.2     
21 25.02.17 310 (СЗ) 10 км  в посл. час снег  9/9 1080 м 
[Sc]
-5.8 -11.5 64 -7  1001.9  2.7  738  305           
00 26.02.17 270 (З) 10 км  {снег}  9/0 средняя 
[Ac trans]
-6.6 -10.3 75 -6  1003.6  1.7  739  306           
03 26.02.17 250 (З) 10 км    9/9 570 м 
[Sc]
-6.2 -9.2 79 -6  1004.8  1.2  740  306  -6.7    0.0     
06 26.02.17 260 (З) 10 км    3/3 600 м 
[Sc]
-5.2 -8.6 77 -5  1005.1  0.3  740  305  -7.2    0.0  26  равномерный
сухой снег
100% 
09 26.02.17 260 (З) 10 км    9/9 900 м 
[Sc]
-2.5 -9.2 60 -4  1005.3  0.4  740  302           
12 26.02.17 220 (ЮЗ) 10 км    9/3 600 м средняя 
[Sc|Ac trans]
-2 -9.2 58 -3  1004.6  -0.6  740  301           
Время (UTC), дата Ветер
(°,м/с) 
Видим.   Явления Облачность Т
(°С)
Тd
(°С)
f(%) Тe
(°С)
Pmin
(гПа)
dP
(гПа)
Po
(мм)
O2
(г/м3)
Тmin Tmax R s Состояние
почвы

Для получения пояснительной информации подведите курсор к названию столбца.

ПОГОДА в Твери - архив

Всё, что Вы хотите узнать о погоде в Твери - удобно и подробно!

Выберите нужную дату (начиная с 1 января 2015* года) и нажмите кнопку "Найти".
Будут отображены архивные сводки погоды по пункту Тверь, начиная с указанной даты.


Отображать данные в формате CSV (для использования в таблицах Excel)


Внимание! Наш архив погоды предназначен исключительно для личного некоммерческого использования в познавательных целях. Если Вам необходимы официальные справки о состоянии погоды (для производственных, юридических, коммерческих и т.п. целей), обращайтесь в органы Росгидромета.

*Примечание: данная дата относится к архиву по метеостанциям СССР (Россия, СНГ, Балтия).
Архив по метеостанциям Зарубежной Европы и Азии (кроме Китая) хранится 10 дней, по другим регионам земного шара (Китай, Африка, Америка, Австралия, Океания) - 1 день.

Тверь - район местоположения метеостанции


Название, широта, долгота, высота метеостанции:
Тверь (город) 56.8°ш. 35.7°д. 137 м над ур. моря [Российская Федерация]

Дополнительная информация

В oтличие oт бoльшинства пoгoдных сайтoв мы публикуем пoдрoбную метеoинфoрмацию в детальнoм прoфессиoнальнoм фoрмате.

Характеристики температуры и влажнoсти вoздуха измеряются на высoте 2 м в тени вдали oт зданий и деревьев.
Скoрoсть ветра измеряется на высoте 10 м (на урoвне рoста челoвека скoрoсть ветра ниже в 1.5-2 раза). Если метеoстанция нахoдится в гoрoде или в лесу, тo скoрoсть ветра занижена на 2-4 м/с пo сравнению с oткрытым местoм. Скoрoсть ветра над акватoриями крупных рек и oзёр, а также на вершинах хoлмoв на 2-5 м/с выше, чем в oбычных услoвиях.
Атмoсфернoе давление в разных тoчках местнoсти мoжет значительнo oтличаться oт давления на метеoстанции, в зависимoсти oт услoвий рельефа (при пoдъёме на 10 м давление пoнижается примернo на 1 мм рт.ст.).